When you browse on this site, cookies collect data to enhance your experience and personalize the content and advertising you see.
Visit our Privacy Policy to learn more. By continuing to use the site, you agree to this use of cookies and data.
  • en Suisse
  • Liste des pays
  • À 7 jours
  • Température de l'eau
  • Carte météo
  • Widgets météo
  • user-avatar
    Se connecter

    Météo par heure à Pinneberg

    Ce jour, 4 Juin, Jeudi

    Heure Température Précipitation Vent Pression Humidité
    00:00 +13°C° 0.5 mm 3 m/s 748 mmHg 94%
    01:00 +13°C° 0 mm 3 m/s 748 mmHg 98%
    02:00 +13°C° 0.8 mm 3 m/s 747 mmHg 98%
    03:00 +13°C° 0.8 mm 3 m/s 746 mmHg 98%
    04:00 +12°C° 0.8 mm 3 m/s 746 mmHg 97%
    05:00 +13°C° 0.4 mm 3 m/s 745 mmHg 96%
    06:00 +14°C° 0.4 mm 3 m/s 745 mmHg 95%
    07:00 +14°C° 0 mm 3 m/s 745 mmHg 92%
    08:00 +16°C° 0.5 mm 3 m/s 744 mmHg 89%
    09:00 +17°C° 0.5 mm 3 m/s 744 mmHg 86%
    10:00 +18°C° 0.5 mm 3 m/s 744 mmHg 83%
    11:00 +18°C° 1.6 mm 3 m/s 743 mmHg 85%
    12:00 +18°C° 1.6 mm 3 m/s 743 mmHg 87%
    13:00 +17°C° 1.6 mm 3 m/s 742 mmHg 89%
    14:00 +17°C° 0.6 mm 3 m/s 742 mmHg 89%
    15:00 +17°C° 0.6 mm 2 m/s 742 mmHg 89%
    16:00 +18°C° 0.6 mm 1 m/s 742 mmHg 89%
    17:00 +16°C° 0.8 mm 2 m/s 741 mmHg 91%
    18:00 +14°C° 0.8 mm 3 m/s 741 mmHg 93%
    19:00 +13°C° 0.8 mm 4 m/s 741 mmHg 95%
    20:00 +12°C° 0.9 mm 4 m/s 741 mmHg 95%
    21:00 +11°C° 0.9 mm 4 m/s 741 mmHg 95%
    22:00 +10°C° 0.9 mm 4 m/s 741 mmHg 96%
    23:00 +10°C° 0.1 mm 4 m/s 742 mmHg 95%

    Demain, 5 Juin, Vendredi

    Heure Température Précipitation Vent Pression Humidité
    00:00 +10°C° 0.1 mm 4 m/s 742 mmHg 95%
    01:00 +10°C° 0.1 mm 4 m/s 742 mmHg 94%
    02:00 +8°C° 0 mm 4 m/s 742 mmHg 94%
    03:00 +7°C° 0 mm 4 m/s 743 mmHg 94%
    04:00 +6°C° 0 mm 4 m/s 743 mmHg 94%
    05:00 +7°C° 0 mm 4 m/s 743 mmHg 92%
    06:00 +8°C° 0 mm 4 m/s 743 mmHg 89%
    07:00 +10°C° 0 mm 4 m/s 744 mmHg 86%
    08:00 +11°C° 0 mm 4 m/s 744 mmHg 78%
    09:00 +12°C° 0 mm 4 m/s 743 mmHg 69%
    10:00 +14°C° 0 mm 4 m/s 743 mmHg 60%
    11:00 +15°C° 0 mm 5 m/s 742 mmHg 57%
    12:00 +15°C° 0 mm 5 m/s 742 mmHg 55%
    13:00 +16°C° 0 mm 5 m/s 741 mmHg 52%
    14:00 +15°C° 0.4 mm 5 m/s 741 mmHg 63%
    15:00 +14°C° 0.4 mm 6 m/s 741 mmHg 73%
    16:00 +13°C° 0.4 mm 6 m/s 740 mmHg 83%
    17:00 +12°C° 0.7 mm 5 m/s 740 mmHg 87%
    18:00 +10°C° 0.7 mm 5 m/s 740 mmHg 90%
    19:00 +10°C° 0.7 mm 4 m/s 740 mmHg 93%
    20:00 +8°C° 0 mm 4 m/s 740 mmHg 93%
    21:00 +8°C° 0 mm 3 m/s 741 mmHg 93%
    22:00 +7°C° 0 mm 3 m/s 741 mmHg 93%
    23:00 +6°C° 0 mm 4 m/s 742 mmHg 93%

    Après-demain, 6 Juin, Samedi

    Heure Température Précipitation Vent Pression Humidité
    00:00 +6°C° 0 mm 4 m/s 742 mmHg 92%
    01:00 +6°C° 0 mm 5 m/s 742 mmHg 91%
    02:00 +6°C° 0 mm 4 m/s 743 mmHg 92%
    03:00 +5°C° 0 mm 4 m/s 743 mmHg 93%
    04:00 +5°C° 0 mm 4 m/s 743 mmHg 94%
    05:00 +6°C° 0 mm 5 m/s 744 mmHg 90%
    06:00 +7°C° 0 mm 5 m/s 744 mmHg 86%
    07:00 +8°C° 0 mm 6 m/s 744 mmHg 82%
    08:00 +9°C° 0.1 mm 6 m/s 744 mmHg 74%
    09:00 +11°C° 0.1 mm 6 m/s 745 mmHg 66%
    10:00 +12°C° 0.1 mm 7 m/s 745 mmHg 57%
    11:00 +14°C° 0.2 mm 7 m/s 745 mmHg 58%
    12:00 +14°C° 0.2 mm 7 m/s 746 mmHg 60%
    13:00 +14°C° 0.2 mm 6 m/s 746 mmHg 61%
    14:00 +14°C° 0.3 mm 6 m/s 746 mmHg 61%
    15:00 +15°C° 0.3 mm 6 m/s 746 mmHg 60%
    16:00 +15°C° 0.3 mm 6 m/s 746 mmHg 60%
    17:00 +14°C° 0.1 mm 5 m/s 746 mmHg 64%
    18:00 +14°C° 0.1 mm 4 m/s 746 mmHg 68%
    19:00 +13°C° 0.1 mm 3 m/s 746 mmHg 72%
    20:00 +12°C° 0 mm 3 m/s 747 mmHg 72%
    21:00 +11°C° 0 mm 4 m/s 747 mmHg 73%
    22:00 +10°C° 0 mm 4 m/s 747 mmHg 74%
    23:00 +10°C° 0 mm 4 m/s 747 mmHg 74%

    7 Juin, Dimanche

    Heure Température Précipitation Vent Pression Humidité
    00:00 +8°C° 0 mm 5 m/s 747 mmHg 74%
    01:00 +8°C° 0 mm 5 m/s 747 mmHg 75%
    02:00 +8°C° 0 mm 5 m/s 747 mmHg 75%
    03:00 +9°C° 0 mm 6 m/s 747 mmHg 75%
    04:00 +9°C° 0 mm 6 m/s 747 mmHg 75%
    05:00 +9°C° 0 mm 7 m/s 747 mmHg 75%
    06:00 +10°C° 0 mm 7 m/s 747 mmHg 76%
    07:00 +10°C° 0 mm 8 m/s 748 mmHg 77%
    08:00 +11°C° 0.3 mm 7 m/s 749 mmHg 77%
    09:00 +12°C° 0.3 mm 7 m/s 749 mmHg 78%
    10:00 +12°C° 0.3 mm 7 m/s 750 mmHg 78%
    11:00 +15°C° 0.3 mm 7 m/s 751 mmHg 73%
    12:00 +16°C° 0.3 mm 7 m/s 751 mmHg 68%
    13:00 +17°C° 0.3 mm 6 m/s 752 mmHg 63%
    14:00 +17°C° 0.4 mm 6 m/s 752 mmHg 65%
    15:00 +17°C° 0.4 mm 5 m/s 753 mmHg 67%
    16:00 +18°C° 0.4 mm 4 m/s 753 mmHg 69%
    17:00 +18°C° 0.2 mm 3 m/s 753 mmHg 72%
    18:00 +17°C° 0.2 mm 2 m/s 754 mmHg 75%
    19:00 +17°C° 0.2 mm 2 m/s 754 mmHg 78%
    20:00 +16°C° 0 mm 2 m/s 754 mmHg 82%
    21:00 +14°C° 0 mm 2 m/s 755 mmHg 85%
    22:00 +12°C° 0 mm 1 m/s 755 mmHg 88%
    23:00 +12°C° 0 mm 2 m/s 755 mmHg 89%

    8 Juin, Lundi

    Heure Température Précipitation Vent Pression Humidité
    00:00 +12°C° 0 mm 2 m/s 755 mmHg 90%
    01:00 +10°C° 0 mm 2 m/s 755 mmHg 90%
    02:00 +10°C° 0 mm 2 m/s 755 mmHg 91%
    03:00 +10°C° 0 mm 2 m/s 755 mmHg 92%
    04:00 +10°C° 0 mm 1 m/s 756 mmHg 92%
    05:00 +12°C° 0 mm 2 m/s 756 mmHg 89%
    06:00 +13°C° 0 mm 2 m/s 756 mmHg 85%
    07:00 +14°C° 0 mm 2 m/s 756 mmHg 81%
    08:00 +16°C° 0.1 mm 2 m/s 757 mmHg 74%
    09:00 +18°C° 0.1 mm 2 m/s 757 mmHg 68%
    10:00 +20°C° 0.1 mm 2 m/s 757 mmHg 61%
    11:00 +20°C° 0.3 mm 2 m/s 757 mmHg 59%
    12:00 +21°C° 0.3 mm 2 m/s 757 mmHg 58%
    13:00 +21°C° 0.3 mm 2 m/s 757 mmHg 56%
    14:00 +21°C° 0.6 mm 2 m/s 757 mmHg 61%
    15:00 +20°C° 0.6 mm 3 m/s 757 mmHg 66%
    16:00 +20°C° 0.6 mm 3 m/s 757 mmHg 71%
    17:00 +19°C° 0.4 mm 2 m/s 757 mmHg 75%
    18:00 +19°C° 0.4 mm 2 m/s 757 mmHg 79%
    19:00 +19°C° 0.4 mm 1 m/s 757 mmHg 83%
    20:00 +18°C° 0.2 mm 1 m/s 758 mmHg 85%
    21:00 +16°C° 0.2 mm 2 m/s 758 mmHg 87%
    22:00 +14°C° 0.2 mm 2 m/s 759 mmHg 90%
    23:00 +14°C° 0 mm 2 m/s 759 mmHg 91%

    9 Juin, Mardi

    Heure Température Précipitation Vent Pression Humidité
    00:00 +13°C° 0 mm 2 m/s 759 mmHg 92%
    01:00 +13°C° 0 mm 2 m/s 759 mmHg 93%
    02:00 +12°C° 0 mm 2 m/s 759 mmHg 93%
    03:00 +12°C° 0 mm 2 m/s 759 mmHg 92%
    04:00 +12°C° 0 mm 2 m/s 759 mmHg 92%
    05:00 +13°C° 0 mm 2 m/s 759 mmHg 91%
    06:00 +14°C° 0 mm 2 m/s 759 mmHg 89%
    07:00 +15°C° 0 mm 2 m/s 759 mmHg 88%
    08:00 +15°C° 0 mm 2 m/s 760 mmHg 82%
    09:00 +16°C° 0 mm 2 m/s 760 mmHg 76%
    10:00 +17°C° 0 mm 2 m/s 760 mmHg 70%
    11:00 +16°C° 0.1 mm 2 m/s 760 mmHg 76%
    12:00 +16°C° 0.1 mm 2 m/s 760 mmHg 81%
    13:00 +15°C° 0.1 mm 2 m/s 760 mmHg 86%
    14:00 +15°C° 0.1 mm 2 m/s 760 mmHg 87%
    15:00 +15°C° 0.1 mm 2 m/s 759 mmHg 87%
    16:00 +15°C° 0.1 mm 2 m/s 759 mmHg 87%
    17:00 +15°C° 0 mm 2 m/s 759 mmHg 87%
    18:00 +15°C° 0 mm 2 m/s 759 mmHg 87%
    19:00 +15°C° 0 mm 2 m/s 759 mmHg 87%
    20:00 +14°C° 0 mm 2 m/s 760 mmHg 90%
    21:00 +13°C° 0 mm 2 m/s 760 mmHg 94%
    22:00 +12°C° 0 mm 2 m/s 760 mmHg 97%
    23:00 +12°C° 0 mm 2 m/s 760 mmHg 97%
    Voir plus